Regional Weather Roundup
Issued by NWS Jackson, KY

Home | Current Version | Previous Version | Text Only | Print | Product List | Glossary Off
Versions: 1 2 3 4 5 6 7 8 9 10 11 12 13 14 15 16 17 18 19 20 21 22 23 24 25 26 27 28 29 30 31 32 33 34 35 36 37 38 39 40 41 42 43 44 45 46 47 48 49 50

692
ASUS43 KJKL 251910
RWRJKL

EAST KENTUCKY HOURLY WEATHER ROUNDUP
NATIONAL WEATHER SERVICE JACKSON KY
300 PM EDT MON JUL 25 2016

NOTE: "FAIR" INDICATES FEW OR NO CLOUDS BELOW 12,000 FEET WITH
NO SIGNIFICANT WEATHER AND/OR OBSTRUCTIONS TO VISIBILITY.

* THESE REPORTS ARE NOT UNDER NWS QUALITY CONTROL AND MAY NOT
  REPORT WEATHER SUCH AS PRECIPITATION AND FOG.

KYZ079-080-083-085-087-088-110-112-115-119-120-252000
...EASTERN KENTUCKY...

CITY           SKY/WX    TMP DP  RH WIND       PRES   REMARKS
JACKSON        CLOUDY    92  74  55 VRB5      30.03F HX 101
LONDON         MOSUNNY   92  69  47 SW8       30.04F HX  97
SOMERSET*      CLOUDY    88  70  55 W6        30.04F HX  92
MONTICELLO*    MOSUNNY  N/A N/A N/A W13       30.04F
WILLIAMSBURG*  PTCLDY    90  73  58 W7        30.04F HX  98
MIDDLESBORO*   PTSUNNY   94  72  48 SW6       30.03F HX 101
HARLAN APT*      N/A     91  66  43 W5        30.06F HX  94
PIKE CO APT*   PTSUNNY   90  76  63 SW5       30.04F HX 100
BIG SANDY APT* CLOUDY    92  74  56 SW5       30.02F HX 102
MOREHEAD APT*  CLOUDY    81  75  83 S6        30.03F
ASHLAND*       CLOUDY    90  77  66 W7        29.96F HX 102
$$

KYZ035-036-041-042-044-050-067-078-099-252000
...CENTRAL KENTUCKY...

CITY           SKY/WX    TMP DP  RH WIND       PRES   REMARKS
MT STERLING*   LGT RAIN  79  72  78 SW12      30.04R
FLEMING/MASON* MOSUNNY   90  75  61 SE6       30.00F HX 100
DANVILLE*      PTSUNNY   84  73  70 CALM      30.04F HX  91
RICHMOND*      PTSUNNY   75  72  88 SW9G20    30.05R
LEXINGTON      TSTM      79  70  74 NW17G24   30.04R
FRANKFORT      LGT RAIN  76  69  79 N8        30.03S
LOUISVILLE     CLOUDY    89  74  60 N12       29.98F THUNDER HX  98
LEBANON*         N/A     91  73  55 SW8       30.01F HX 100
GLASGOW*       PTSUNNY   82  70  68 S6G17     30.01F
BOWLING GREEN  MOSUNNY   93  74  53 SW8       29.99F HX 103
$$

KYZ091>093-OHZ055-061-077-WVZ005-015-034-035-042-252000
...SOUTHERN OHIO/WEST VIRGINIA...

CITY           SKY/WX    TMP DP  RH WIND       PRES   REMARKS
COVINGTON      PTSUNNY   90  72  55 W10       29.99F HX  97
COLUMBUS       PTSUNNY   92  69  47 NW14      29.96F HX  97
DAYTON         PTSUNNY   88  68  51 NW12      30.01F HX  91
WILMINGTON     MOSUNNY   90  72  55 NW9       29.99F HX  97
HUNTINGTON       N/A     90  74  59 W5        29.98F HX  99
CHARLESTON     PTSUNNY   92  71  50 W9        29.99F HX  98
PINEVILLE*       N/A     92  69  45 MISG      30.11F HX  97
BECKLEY          N/A     86  70  58 NW8       30.11F HX  90
BLUEFIELD        N/A     83  67  58 W6        30.14F
LOGAN CO APT*    N/A     88  75  66 CALM      30.04F HX  97
$$

VAZ002-007-008-TNZ017-027-036-066-071-252000
...SOUTHWEST VIRGINIA/EAST TENNESSEE...

CITY           SKY/WX    TMP DP  RH WIND       PRES   REMARKS
WISE*          PTSUNNY   86  61  42 CALM      30.15F
JONESVILLE*      N/A     91  72  52 SW3       30.07F HX  98
ABINGDON*        N/A     92  63  38 NW6       30.09F HX  93
BRISTOL        MOSUNNY   95  68  41 SW9       30.05F HX  99
MORRISTOWN*    CLEAR     91  70  49 NE9       30.04F HX  97
SEVIERVILLE*   PTCLDY    86  66  51 S6        30.04F
KNOXVILLE      MOSUNNY   95  68  41 MISG      30.02F HX  99
OAK RIDGE      MOSUNNY   95  68  41 VRB5      30.04F HX  99
CROSSVILLE     PTSUNNY   88  72  58 W9        30.10F HX  94
NASHVILLE      PTSUNNY   93  74  53 CALM      30.01F HX 103
$$

...KEY TO REMARKS...
VSB - VISIBILITY IN MILES
WCI - WIND CHILL INDEX
HX  - HEAT INDEX

$$




USA.gov is the U.S. government's official web portal to all federal, state and local government web resources and services.